Wind_Speed
32 31 31 31 30 29 29 28 28 28 29 28 28 28 28 29 30 30 30 31 31 31 32 32 32 32 31 31 32 33 34 35 36 38 35 27 27 31 31 31 30 28 27 25 24 23 23 22 21 21 20 20 20 19 19 20 20 20 20 22 23 22 20 15 12 13 12 6 6 4 5 11 15 19 22 26 27 24 21 20 19 19 20 17 15 14 11 11
33 33 32 32 32 31 30 29 29 29 29 29 29 29 29 29 30 30 30 31 31 31 31 31 32 31 31 30 30 31 33 35 36 37 32 28 31 33 31 31 31 29 28 27 25 24 24 23 22 22 21 21 21 20 21 21 20 20 21 22 23 20 17 14 12 15 12 6 6 6 5 9 13 17 21 24 27 25 21 20 20 20 20 19 17 16 13 14
32 33 32 32 32 32 32 31 30 30 29 30 29 29 30 30 30 30 30 30 31 31 30 30 30 31 31 30 29 30 31 33 36 34 31 32 33 31 31 31 31 30 29 28 26 26 25 24 24 23 23 23 22 22 22 22 21 20 21 22 21 19 16 13 13 14 12 7 6 6 7 7 10 15 17 20 23 24 20 18 20 19 19 19 19 17 15 18
30 31 31 32 32 32 32 32 32 31 30 30 29 30 31 30 31 30 30 30 30 31 30 29 29 29 30 30 29 29 30 32 34 32 32 34 32 31 32 31 31 31 30 29 28 27 26 26 25 24 24 24 23 23 23 22 21 21 21 21 20 17 15 13 13 13 12 8 6 6 7 7 10 14 16 16 19 21 18 15 15 14 17 20 19 17 18 21
27 28 28 29 30 31 31 32 32 32 31 30 29 30 31 31 31 31 31 31 30 30 30 30 29 29 29 29 29 29 29 29 32 32 32 34 33 32 31 31 31 30 30 30 29 28 28 27 26 26 25 25 24 24 24 23 22 22 21 20 19 16 14 14 14 13 12 9 6 5 6 8 11 14 16 16 17 16 15 15 13 10 14 18 18 18 20 22
23 24 25 26 27 28 29 30 31 32 32 31 29 29 30 32 32 32 32 31 31 30 30 30 29 29 28 29 30 30 30 26 25 27 31 33 33 33 31 30 31 31 30 30 30 29 29 29 28 27 26 25 25 24 23 23 23 22 21 21 20 16 15 15 13 14 14 11 7 6 7 10 13 15 16 17 16 14 14 15 13 12 15 16 17 18 20 22
20 21 22 22 23 25 26 27 28 30 32 31 29 28 29 30 32 32 32 32 32 30 30 29 29 29 28 29 30 31 33 28 22 21 25 31 33 32 32 31 30 31 31 31 31 31 30 30 29 27 26 26 25 24 23 23 24 23 22 23 21 18 16 15 14 15 15 11 8 8 7 9 13 16 17 18 17 16 16 16 13 14 18 18 19 20 22 21
21 21 21 22 22 23 24 25 26 27 30 30 29 29 28 28 31 32 32 33 32 31 31 29 30 30 28 29 30 33 33 27 23 21 21 27 32 33 32 32 31 31 31 30 30 29 30 30 28 27 26 26 25 23 24 23 23 24 24 25 22 18 16 15 15 16 15 12 10 10 8 9 14 17 18 19 18 18 19 18 14 15 19 20 22 24 24 22
24 23 23 23 23 23 24 24 24 25 27 29 29 29 28 27 28 30 32 32 32 32 31 30 30 30 30 30 31 34 30 23 24 26 23 22 27 32 33 33 32 31 30 29 29 29 30 29 27 26 26 26 24 23 23 23 24 24 25 25 21 18 17 17 17 16 15 13 11 11 9 10 13 17 20 21 20 20 21 20 16 16 20 22 26 27 26 23
25 25 24 25 25 25 25 25 25 24 25 27 28 29 28 26 26 28 30 31 32 32 31 31 31 31 31 30 32 33 26 23 27 28 26 23 22 29 33 34 33 32 30 29 30 30 29 26 25 26 26 25 24 23 23 24 23 22 24 25 21 18 18 18 17 17 15 13 13 11 10 12 13 16 20 22 22 21 22 22 18 18 21 26 30 30 26 24
26 25 25 25 25 26 26 26 26 25 25 25 26 28 29 28 26 28 29 30 31 31 31 31 31 32 32 32 34 29 22 25 28 28 29 27 22 25 31 34 33 32 31 30 30 28 27 26 26 27 26 25 25 23 24 25 23 21 22 22 21 20 19 19 18 18 16 14 14 12 12 12 14 16 18 20 22 22 22 23 20 20 24 30 34 30 27 25
26 26 26 25 25 25 25 25 25 25 25 25 25 26 28 29 28 28 28 30 31 30 31 31 33 33 33 35 32 23 22 28 29 28 29 29 26 24 28 33 34 32 31 30 29 28 27 28 29 28 26 25 25 22 22 24 24 23 20 17 18 20 19 20 20 18 17 16 14 15 14 13 15 16 16 19 21 21 21 23 23 23 27 33 34 31 30 29
26 26 26 26 25 25 24 24 24 24 24 24 25 25 27 29 30 28 27 30 31 30 29 31 33 32 35 37 27 20 26 29 28 27 27 29 28 26 26 31 33 32 31 30 29 28 29 30 30 29 27 24 24 22 20 23 24 23 21 15 14 18 20 21 21 19 18 17 16 17 15 14 17 14 14 19 21 22 23 23 24 25 31 34 34 32 30 28
28 27 26 26 26 25 25 25 25 25 24 24 24 24 26 28 29 27 26 29 31 30 28 30 33 33 38 36 24 24 29 27 26 26 27 30 30 29 27 29 33 33 31 31 31 31 31 32 31 30 28 24 24 23 19 21 24 23 21 16 15 16 19 21 20 19 19 17 17 18 16 15 15 12 12 15 17 21 24 25 22 26 34 34 32 29 26 21
28 27 27 26 26 26 26 26 25 26 25 24 24 24 25 27 29 28 27 29 31 31 28 29 32 33 38 34 25 27 29 26 25 27 30 32 31 31 27 27 32 33 33 32 33 33 33 34 33 31 30 26 24 24 19 18 23 24 19 16 18 17 17 21 20 20 20 18 18 19 17 15 14 13 14 14 17 20 23 25 22 25 31 30 27 25 22 17
26 26 26 26 26 26 26 26 26 26 25 24 23 23 24 25 30 30 28 29 32 33 29 29 31 34 36 31 27 28 27 27 28 29 32 33 32 32 28 27 32 34 34 34 34 35 35 35 34 31 30 28 25 25 21 16 20 25 21 17 19 19 17 20 20 21 21 18 18 18 15 14 13 14 14 14 19 20 20 24 27 28 28 26 25 23 22 19
24 25 25 25 25 25 25 25 25 25 25 24 23 24 23 24 29 30 27 28 32 34 30 28 31 34 34 27 26 28 28 29 30 30 32 33 33 32 30 28 32 36 35 35 35 36 36 35 35 32 32 31 28 26 22 18 20 25 24 18 18 22 20 19 20 21 22 18 17 18 14 11 10 11 11 11 15 16 12 14 22 27 25 23 23 22 23 19
23 23 23 23 23 24 24 24 24 24 25 24 24 24 23 24 29 31 28 27 30 33 32 30 32 33 29 25 25 26 28 30 30 31 32 34 35 32 31 29 33 37 37 37 37 37 37 36 35 34 34 33 31 31 26 21 23 26 26 21 18 22 24 21 19 19 21 17 16 16 14 12 8 7 9 9 12 12 10 9 13 19 22 26 25 22 23 19
23 23 22 23 23 23 23 23 23 24 24 24 24 23 23 25 30 34 31 28 32 35 32 30 31 30 25 23 24 24 27 30 30 31 33 36 36 34 32 31 33 38 39 39 38 38 38 36 36 37 38 37 36 35 29 23 23 23 24 24 21 21 24 22 18 17 18 17 15 15 16 16 10 6 7 7 8 9 11 11 10 12 16 23 24 22 23 23
22 22 23 23 23 23 23 23 23 22 23 24 23 23 23 26 32 37 35 32 34 35 33 30 29 29 26 22 23 24 27 31 32 33 34 37 38 36 34 33 34 37 40 40 39 39 38 38 40 42 41 39 36 34 30 22 18 18 20 23 21 20 22 22 18 17 16 16 15 16 16 16 12 7 6 6 6 7 10 13 13 13 14 16 20 23 25 27
22 22 23 24 24 24 23 23 23 22 22 22 22 22 22 24 31 38 37 33 33 32 33 32 30 29 26 22 22 26 29 31 32 34 36 38 40 38 35 35 36 38 40 40 38 37 37 39 42 43 39 37 33 32 31 21 15 17 19 22 21 19 20 22 20 17 15 15 14 14 15 14 12 9 8 9 7 7 9 11 13 15 18 18 22 27 29 31
21 21 22 24 24 24 23 22 22 21 20 20 21 22 21 24 30 36 34 30 28 30 32 32 32 31 25 23 22 26 30 31 31 35 37 38 41 40 38 38 37 39 39 39 38 38 38 40 40 39 36 34 32 30 31 24 16 16 19 22 22 20 20 21 21 17 15 16 12 11 12 12 11 10 12 13 9 6 8 10 11 13 19 23 25 30 32 31
20 21 22 23 24 23 22 21 20 19 19 19 20 21 22 23 28 32 33 31 27 27 31 30 29 30 25 25 24 26 30 31 31 36 38 38 42 42 39 40 38 38 39 40 41 40 38 39 38 37 35 35 33 30 30 28 21 18 20 23 24 22 19 16 20 19 16 16 12 9 9 9 10 11 13 15 11 9 10 13 13 13 19 24 25 27 28 26
19 21 23 23 22 21 20 19 17 17 17 18 18 20 21 23 26 28 29 29 27 26 27 25 26 28 24 25 28 28 27 30 32 35 39 40 42 43 40 40 39 37 38 39 40 40 37 35 36 35 34 34 34 32 31 31 27 22 21 23 25 25 20 13 16 19 15 13 12 8 6 7 10 12 14 16 14 14 15 16 16 16 21 24 21 20 23 25
20 22 23 22 21 19 18 17 15 15 15 16 15 15 16 20 23 24 22 18 21 25 25 24 27 26 24 28 32 30 28 31 34 36 40 41 42 44 41 38 38 38 38 36 36 36 34 32 33 35 35 34 34 34 33 32 31 27 23 23 23 23 21 14 12 14 12 9 11 10 6 4 9 13 16 17 16 18 20 19 19 18 20 23 21 21 26 28
20 21 21 20 19 18 16 14 12 11 11 12 12 11 12 17 19 18 14 9 13 21 23 22 22 20 25 34 34 30 28 30 33 35 40 42 41 44 41 38 38 37 36 34 31 31 32 31 31 34 35 34 33 33 34 32 31 30 27 23 21 21 19 15 11 9 8 6 8 12 9 3 7 12 14 17 19 21 23 22 21 19 19 23 24 26 29 25
19 20 19 18 16 15 13 11 8 7 8 9 11 11 11 15 14 12 10 4 9 17 19 18 17 17 25 33 33 31 26 25 31 35 39 41 41 43 42 40 39 36 35 34 27 25 30 30 28 31 34 35 34 34 33 32 29 29 28 24 21 20 17 14 12 8 6 5 5 9 11 5 6 11 14 17 21 23 26 25 22 20 20 21 23 27 26 20
18 18 17 16 14 13 11 9 7 5 5 8 11 12 12 12 11 11 8 2 2 7 10 14 18 18 21 27 32 33 24 22 31 35 37 40 41 43 43 41 40 36 35 34 25 21 28 31 29 29 32 34 36 35 33 31 28 27 27 24 20 19 16 13 13 10 7 6 4 8 12 6 4 11 15 17 22 25 27 26 23 23 24 23 22 24 22 18
17 16 15 14 13 11 11 11 7 2 4 8 11 11 11 11 11 9 4 2 3 3 4 13 21 20 22 27 32 32 23 20 29 34 36 40 41 42 42 41 39 34 32 32 26 20 23 28 28 27 29 32 34 33 31 30 28 25 25 23 21 19 17 14 13 12 10 8 7 10 13 8 4 11 17 18 22 26 26 26 25 25 27 26 22 21 21 20
16 16 14 12 12 11 11 9 4 2 2 6 10 11 12 12 11 6 2 3 5 2 2 13 19 20 23 28 33 34 24 19 27 33 36 39 40 41 40 37 37 34 30 29 26 21 19 22 25 25 25 26 27 29 29 27 26 25 24 23 21 17 15 14 13 12 9 7 8 12 14 11 5 9 18 18 16 20 24 26 28 27 28 27 25 23 24 26
14 14 13 11 11 11 11 8 3 1 1 5 10 12 12 12 9 4 2 4 6 3 2 10 17 18 22 27 34 37 26 19 27 33 36 39 39 39 37 34 34 32 29 29 24 19 18 20 25 27 23 20 20 25 28 26 25 25 25 24 19 12 10 9 10 10 8 4 5 11 15 14 9 8 12 13 12 15 22 24 26 26 26 28 30 30 30 32
11 12 11 10 10 10 10 8 5 2 2 6 11 12 11 8 5 6 4 3 4 3 3 10 16 15 17 23 33 38 28 21 27 31 36 41 40 41 39 37 39 32 26 30 27 20 20 22 24 26 25 22 20 25 27 25 26 25 26 26 18 9 7 7 6 6 5 2 5 11 16 13 12 11 9 9 12 16 21 21 22 24 25 29 33 34 36 39
9 10 9 8 9 9 8 6 4 1 2 7 11 12 9 4 3 8 6 2 4 3 5 11 14 13 14 22 34 37 27 21 27 30 34 40 40 40 38 36 41 35 27 31 29 21 18 19 24 26 26 26 24 27 32 31 30 29 28 29 20 8 5 6 5 2 2 3 5 11 14 9 9 14 13 11 11 15 20 21 21 23 25 29 33 34 37 39
7 8 7 7 7 6 4 4 2 1 2 5 9 10 8 3 3 6 6 5 10 9 8 13 15 14 13 20 34 38 28 20 26 30 33 38 39 40 39 34 36 36 32 32 30 25 17 12 21 26 24 28 28 26 30 33 34 32 30 30 25 14 5 5 6 3 2 4 6 10 10 6 7 10 14 17 15 15 18 21 22 25 27 28 30 31 31 31
6 6 5 5 5 5 4 3 3 3 1 3 6 8 8 5 4 4 4 4 13 16 8 15 17 16 13 16 30 37 28 19 26 32 34 38 40 41 42 36 34 35 33 29 27 28 19 10 18 23 19 25 29 23 24 27 31 33 31 29 28 20 7 3 5 6 6 5 5 10 7 6 9 8 11 18 19 18 19 21 24 26 28 28 28 28 28 28
6 5 4 5 5 5 5 4 4 4 3 2 4 6 8 9 9 9 11 9 17 20 7 17 16 16 14 14 26 34 25 20 27 32 32 36 38 40 41 37 35 34 32 30 27 25 19 11 16 21 17 20 27 26 23 24 28 32 31 28 27 22 11 4 4 6 7 4 5 9 6 8 11 8 12 18 19 21 22 23 24 25 27 29 28 28 27 28
6 5 4 5 5 5 5 5 5 5 5 4 5 7 9 12 12 15 18 18 22 20 6 14 13 16 14 13 25 32 22 20 28 30 30 32 32 37 40 36 34 33 30 30 27 26 21 12 14 21 18 17 22 25 24 23 26 31 32 30 26 21 17 11 4 4 5 4 4 7 8 11 11 8 13 20 21 23 24 24 26 26 27 28 27 28 28 29
6 5 4 4 4 3 3 3 4 4 5 5 7 10 12 13 12 15 17 18 21 17 3 10 10 13 13 13 25 30 21 20 28 28 30 29 23 32 41 36 34 32 27 25 23 25 25 14 12 21 20 17 21 23 24 25 27 28 30 33 27 18 17 16 8 3 4 4 2 5 7 12 16 15 16 20 20 20 23 26 27 27 28 28 28 28 29 30
6 4 3 3 3 2 2 2 3 4 3 5 8 11 13 14 15 16 15 15 17 14 3 10 10 10 11 15 25 29 19 20 28 26 27 26 17 24 39 37 35 34 28 25 20 20 25 16 10 19 23 20 22 26 29 30 29 25 24 31 30 19 15 18 14 6 4 4 2 4 4 9 18 21 18 16 15 15 18 23 26 28 28 29 29 30 31 31
6 4 3 4 5 5 4 2 3 3 3 6 9 11 14 17 17 14 12 12 12 7 6 11 10 10 11 15 26 27 17 19 28 24 24 27 16 16 34 37 35 37 32 29 21 15 20 18 11 19 25 24 25 30 33 34 33 30 25 30 33 21 13 16 17 12 5 1 2 3 2 5 14 19 17 14 13 14 15 17 23 28 29 29 31 31 31 31
7 5 5 7 7 7 6 5 4 3 3 5 8 10 11 14 12 9 10 10 5 5 11 11 11 13 13 17 26 25 16 18 26 21 20 27 18 12 28 36 35 37 35 32 27 18 18 18 14 20 26 26 27 29 30 32 33 33 31 31 33 26 17 12 12 15 10 2 2 2 1 3 10 14 15 15 15 15 16 17 21 26 29 31 32 31 31 30
9 6 5 5 6 6 6 5 3 2 4 4 6 6 7 10 10 8 8 5 5 11 13 11 13 15 13 18 26 22 17 19 22 18 16 23 17 6 19 33 33 35 34 31 30 22 18 18 15 19 27 27 27 25 25 28 29 30 31 31 32 31 27 17 9 12 13 7 2 1 2 1 6 12 17 19 19 18 18 19 21 24 28 30 31 31 30 29
10 7 6 6 5 5 5 5 5 5 6 5 6 8 9 11 10 6 3 5 10 12 14 14 16 16 14 19 26 21 19 20 19 15 12 17 14 2 11 28 30 32 33 31 30 23 19 20 15 15 21 23 23 23 23 25 28 31 32 31 31 31 31 25 15 13 16 16 10 3 2 4 4 10 18 20 21 21 19 20 22 23 26 28 29 30 29 30
10 8 8 7 7 7 7 9 10 10 10 10 10 10 9 9 5 3 6 10 11 13 16 16 16 16 16 21 27 23 19 19 18 15 12 16 14 4 11 26 28 30 32 30 31 26 18 19 18 13 11 14 15 16 21 27 30 33 34 33 30 28 27 26 21 17 17 21 20 10 4 5 6 10 17 21 22 23 21 21 22 24 26 27 27 28 29 30
11 10 10 10 10 9 10 12 14 14 14 16 16 14 12 10 7 11 11 13 15 17 17 17 16 16 17 21 27 25 18 16 19 17 14 18 17 8 13 24 25 27 30 30 31 26 15 17 22 15 9 10 11 10 17 28 32 31 32 33 32 29 27 25 21 18 15 18 22 16 8 8 9 10 14 18 21 22 23 23 23 24 26 28 29 30 31 31
13 11 11 12 11 10 11 14 16 17 20 22 21 17 16 13 12 15 14 14 17 18 17 17 17 16 18 21 25 25 18 15 20 21 16 16 18 12 14 22 24 23 27 31 32 26 16 16 21 19 14 14 15 14 17 26 31 31 31 31 32 31 30 26 23 20 15 13 19 22 18 14 12 10 9 12 16 19 22 23 23 25 27 29 32 34 33 33
13 12 12 13 12 12 14 14 16 19 21 22 19 17 17 15 15 18 16 14 15 16 15 16 18 18 19 22 23 24 20 15 18 23 18 15 16 14 14 19 23 23 25 30 32 26 18 15 16 17 15 13 14 15 18 23 28 31 31 29 29 30 31 31 29 25 18 13 14 20 22 19 16 13 10 10 12 16 19 21 23 25 27 29 31 33 35 35
14 14 14 14 15 16 16 15 15 16 17 17 15 15 16 16 17 16 14 13 13 13 13 14 16 19 22 25 24 24 23 18 17 22 22 16 15 15 14 17 22 24 25 28 29 25 21 16 14 14 13 11 9 8 12 18 23 27 29 29 28 28 30 34 33 29 26 21 17 16 18 18 17 15 14 12 13 16 19 21 24 26 28 30 30 31 35 36
15 15 14 13 14 16 17 15 15 15 13 12 12 12 14 15 16 14 13 13 11 12 14 13 14 18 23 27 25 26 27 23 19 20 23 21 16 14 16 18 21 25 27 26 26 24 21 18 16 14 11 11 8 3 4 13 21 25 27 28 28 27 27 29 29 29 30 29 26 22 20 19 18 18 18 17 17 18 20 23 25 26 28 31 31 31 33 34
16 16 15 14 14 14 15 14 14 14 12 10 9 9 11 12 13 13 14 12 11 11 11 12 15 17 21 23 24 28 30 26 22 20 20 22 19 15 16 17 19 24 28 26 24 24 21 16 17 18 14 12 12 7 4 8 17 24 27 27 27 27 27 27 28 29 30 32 30 27 25 23 21 19 19 19 19 19 20 22 24 26 27 29 30 29 28 29
18 17 16 17 18 17 16 14 12 13 12 10 8 8 8 9 10 13 13 12 11 9 7 11 17 18 17 19 22 26 29 27 23 20 20 21 19 15 14 15 17 21 26 27 24 24 22 16 15 19 16 13 13 10 6 7 10 17 26 28 27 27 27 28 28 28 29 30 30 29 28 24 21 19 19 19 18 18 19 21 22 24 25 26 27 27 28 30
23 21 19 18 18 17 15 13 12 11 11 11 10 8 7 7 9 13 13 11 10 7 6 13 19 18 17 19 20 21 22 23 23 22 21 21 18 15 12 11 14 18 23 26 24 24 24 17 14 18 15 12 12 10 7 8 6 9 18 24 27 28 27 27 27 26 26 27 29 29 25 19 16 18 20 20 20 19 19 19 20 22 24 26 27 28 29 29
Wind_Direction
281 279 277 275 273 271 269 269 270 269 268 267 266 265 264 263 261 260 259 256 254 251 250 249 247 246 245 245 244 243 240 238 237 236 234 229 227 225 222 224 223 223 223 223 222 222 222 222 221 220 220 221 222 222 224 223 221 220 220 224 228 230 228 221 211 182 157 126 116 119 160 174 177 180 182 187 192 192 191 196 192 190 193 193 195 198 200 204
282 281 280 279 277 275 272 268 267 268 268 267 266 265 263 262 261 260 259 258 256 253 251 249 248 246 244 244 244 243 241 239 237 236 233 225 225 225 221 222 223 221 221 221 219 219 219 218 218 217 217 218 219 220 221 222 220 220 221 226 229 229 225 217 206 181 164 138 119 115 144 160 167 173 179 188 197 197 195 199 194 192 196 194 193 199 199 194
281 281 280 279 278 277 276 272 269 266 266 266 266 265 263 262 261 260 259 258 257 255 252 250 249 247 244 243 242 242 241 239 238 235 231 226 224 225 222 221 222 220 219 220 217 216 216 215 214 213 214 214 216 218 219 220 220 221 224 229 230 229 223 213 203 190 179 164 128 124 139 151 163 165 172 183 194 197 195 196 197 197 201 198 195 196 189 186
282 282 281 280 278 277 277 276 273 270 267 265 265 265 264 262 261 260 258 258 257 256 254 251 249 247 245 242 240 240 240 241 239 233 229 227 223 222 222 220 220 220 218 218 217 215 214 213 212 211 212 212 214 215 217 218 219 221 225 231 232 227 220 208 202 195 188 180 148 140 147 159 175 168 169 176 181 185 182 187 201 208 208 202 195 190 181 182
288 286 285 283 281 279 278 276 275 274 271 268 265 264 264 263 261 259 258 257 257 256 254 252 249 246 244 242 240 238 238 242 241 232 228 227 222 220 221 219 219 218 217 216 215 214 212 212 210 209 210 210 211 213 215 216 217 221 224 231 232 225 214 206 204 195 190 190 170 157 159 170 182 171 166 169 168 171 166 173 191 206 212 204 191 187 181 182
298 294 291 289 286 284 281 279 277 275 273 271 267 264 263 263 262 259 258 257 255 255 254 252 250 247 244 241 239 236 234 237 239 233 228 226 222 220 218 219 218 216 216 214 213 213 212 211 209 208 208 209 211 213 215 215 216 219 223 230 229 222 210 205 205 197 191 195 190 180 168 168 177 168 162 162 157 160 165 169 178 190 201 199 192 188 183 185
306 303 301 297 294 291 287 284 281 277 274 272 270 267 264 263 262 260 258 256 255 254 253 252 250 247 244 240 238 235 232 229 232 234 229 225 222 219 217 217 216 215 215 213 213 212 211 211 209 207 207 209 211 212 214 215 216 216 221 229 228 220 210 201 200 197 193 194 196 191 171 169 176 169 164 162 156 160 170 169 172 186 190 190 194 191 185 187
308 306 305 303 301 298 294 290 285 280 277 274 271 269 268 265 263 260 258 256 254 253 252 250 249 246 243 240 237 235 232 226 227 231 229 225 220 216 214 214 214 213 213 213 213 213 212 211 208 206 207 209 211 211 212 214 217 216 218 226 227 219 208 197 191 191 193 194 196 196 176 168 175 174 169 165 163 167 172 171 174 186 187 188 192 189 185 185
306 306 305 304 303 301 299 296 292 286 280 276 270 266 267 268 266 263 259 256 254 252 250 249 247 246 242 240 238 237 232 221 222 225 225 224 218 214 212 211 212 211 211 210 210 211 212 211 208 207 208 210 211 212 213 213 217 217 219 226 226 217 210 198 187 186 192 193 196 196 183 173 174 177 173 166 167 171 174 174 176 184 189 190 189 185 182 180
303 303 303 302 302 301 300 298 296 292 285 279 271 264 261 263 267 266 261 257 254 251 249 247 246 244 241 239 238 237 230 218 220 221 221 222 215 211 210 209 209 208 207 206 208 209 209 208 207 207 208 210 211 211 213 214 217 219 222 228 224 215 213 200 185 185 189 189 196 197 189 180 175 180 177 170 170 172 176 178 180 187 189 188 183 180 181 182
300 300 300 299 298 297 296 295 295 294 289 283 274 264 257 256 261 264 262 258 254 251 248 246 244 243 241 238 237 236 228 220 219 217 218 219 214 209 207 207 207 206 205 205 205 206 205 203 204 206 206 209 210 211 213 213 215 219 225 230 224 216 212 199 186 185 186 186 193 198 196 187 180 183 183 179 177 176 180 181 186 191 187 184 181 178 182 185
300 300 299 298 296 293 292 291 291 291 290 286 279 268 257 252 254 261 266 263 256 251 248 246 243 242 240 238 235 233 227 222 218 214 216 216 213 209 206 205 205 203 204 204 202 201 202 201 202 203 204 207 208 208 213 214 213 217 224 230 223 217 211 198 188 185 185 185 190 195 198 194 185 184 187 189 188 185 187 188 190 189 184 182 181 182 184 183
300 299 299 298 295 292 290 288 288 289 288 286 281 272 260 251 249 255 264 266 260 253 249 246 243 241 240 238 230 223 225 222 216 212 213 214 213 210 206 204 202 200 200 200 199 198 200 201 201 201 202 205 205 205 210 211 211 214 219 219 215 216 212 199 189 187 187 184 187 193 199 197 187 185 192 194 195 194 190 189 189 184 181 182 182 183 187 186
301 300 299 297 294 292 290 288 287 287 286 283 280 274 263 251 246 249 258 265 264 257 250 247 244 241 240 236 222 217 224 220 214 209 209 212 211 210 207 202 199 197 196 195 194 196 200 201 202 200 201 202 202 203 206 207 208 210 214 213 207 212 211 201 191 189 190 187 186 192 202 202 191 191 194 192 203 206 192 184 189 184 179 178 180 183 187 188
300 300 298 295 293 291 289 289 288 285 285 281 276 273 265 252 241 243 251 259 264 260 252 248 245 242 241 235 219 218 221 217 211 205 206 208 207 208 206 200 197 193 192 193 193 194 198 201 202 200 199 199 199 200 201 204 206 206 206 206 206 208 207 201 195 192 192 192 191 195 205 204 200 206 203 192 195 202 192 177 177 183 178 174 180 186 183 172
298 297 295 293 291 289 289 289 288 285 283 279 274 269 265 252 238 237 246 255 262 262 255 251 246 242 242 234 222 219 216 214 209 203 204 203 204 206 203 198 194 191 190 191 192 194 198 200 202 201 199 198 197 196 194 193 201 206 204 201 205 204 201 199 198 195 195 199 199 201 205 203 208 214 213 206 192 191 191 174 163 170 176 179 183 183 177 161
296 293 291 289 287 288 289 288 287 285 282 278 273 266 262 252 236 232 242 249 256 260 257 253 247 242 241 230 221 217 211 211 208 203 202 200 202 203 201 197 192 191 190 190 192 195 198 200 200 200 200 199 198 193 190 189 192 200 201 198 202 201 196 197 198 198 198 203 206 206 205 205 216 215 213 225 212 199 197 184 169 165 170 182 182 177 177 165
295 292 289 288 288 288 289 289 287 283 281 277 271 264 259 250 235 228 236 244 248 255 254 249 244 240 237 225 218 214 208 209 208 203 200 199 199 200 201 197 192 191 190 190 193 195 197 199 199 200 200 200 199 195 194 197 193 193 195 192 195 199 198 195 195 200 201 204 208 207 209 212 216 205 199 217 221 207 199 203 186 167 167 180 180 176 178 169
295 292 292 293 294 293 292 290 287 282 279 275 269 264 255 244 231 227 234 240 240 244 247 245 242 237 232 223 216 209 204 206 206 201 199 198 196 197 198 197 194 193 192 192 194 196 197 197 198 200 202 200 199 198 199 203 199 196 197 194 194 198 199 195 195 203 202 202 205 203 208 214 207 185 188 196 200 198 198 200 186 173 179 185 183 176 175 176
298 296 299 302 301 300 297 292 287 281 275 271 267 262 252 238 229 227 231 237 237 240 245 247 246 238 228 219 211 205 201 203 203 198 197 197 194 194 195 195 195 194 195 196 195 197 198 199 201 202 202 201 200 200 201 204 202 200 199 196 196 199 198 195 198 206 201 196 201 202 206 211 202 183 191 202 189 181 197 199 184 183 194 198 196 184 179 185
303 302 305 307 307 305 301 295 289 281 273 268 264 259 249 233 227 226 230 239 240 239 246 249 251 244 225 213 208 202 201 202 199 196 196 196 193 191 193 195 195 195 197 198 198 198 200 204 207 205 204 202 201 202 201 203 199 196 197 194 195 198 198 197 200 207 204 197 198 202 205 207 201 186 190 205 198 168 179 197 195 194 196 198 200 196 192 193
311 310 310 311 311 308 303 297 288 280 272 267 262 255 244 230 226 226 230 246 248 239 245 249 250 247 223 207 208 203 202 200 195 194 195 195 193 191 192 194 195 197 197 197 199 199 202 207 208 206 205 202 203 204 202 200 190 188 193 193 194 196 196 199 204 206 207 205 204 206 206 206 203 193 190 196 197 172 168 192 207 211 202 195 199 204 202 197
318 316 316 315 314 310 304 296 287 278 270 266 261 248 239 232 228 227 234 250 253 241 243 245 250 249 225 205 208 205 201 197 193 193 193 194 194 192 193 194 195 197 198 198 199 199 202 206 206 205 206 203 203 203 203 201 192 184 188 192 194 194 193 200 206 207 209 209 212 216 209 200 198 197 195 194 193 186 188 197 202 207 199 195 203 205 201 197
320 320 320 319 317 312 306 297 286 278 269 264 257 242 234 229 226 232 240 246 247 241 241 244 251 247 222 205 209 207 200 195 193 192 192 193 193 192 194 195 194 196 199 201 202 203 205 206 205 205 206 205 204 203 203 203 198 190 187 191 194 194 196 202 206 208 210 214 219 214 202 194 192 195 195 193 191 193 204 206 201 199 193 196 202 192 191 201
321 323 322 322 321 315 309 299 288 281 272 258 245 233 226 221 224 236 241 241 245 244 243 247 251 244 219 207 208 204 199 196 192 191 191 192 191 192 194 195 195 197 198 200 201 205 209 208 205 205 206 205 206 206 204 203 202 199 193 189 191 194 200 207 209 210 210 214 220 209 199 190 187 193 194 190 188 195 206 209 205 200 193 196 194 186 198 203
322 325 326 326 324 318 312 304 295 285 268 241 225 225 222 217 223 235 230 233 258 253 250 250 248 239 215 209 205 200 203 198 189 190 192 191 191 193 193 194 196 198 198 197 198 203 207 208 207 207 207 205 206 208 208 205 204 206 201 186 182 191 199 206 204 206 205 200 211 210 210 192 176 192 194 190 192 197 204 209 208 201 198 201 193 195 207 193
326 328 330 330 326 325 321 312 299 279 255 224 213 217 212 204 207 213 206 237 273 253 250 242 227 218 210 207 202 198 201 193 187 191 192 190 190 192 194 194 195 197 197 194 194 201 204 203 204 206 208 207 206 208 208 206 205 209 205 188 183 191 197 205 203 201 199 191 200 206 204 189 170 191 192 191 196 201 206 209 209 204 205 209 198 199 207 184
331 331 333 333 330 327 320 306 290 264 229 213 213 209 195 181 173 173 182 232 246 220 233 216 202 205 202 200 200 198 193 183 187 192 190 190 191 192 195 197 195 195 196 193 188 194 199 200 202 202 205 209 209 208 208 206 207 212 207 194 191 198 204 212 212 213 220 221 218 192 193 195 176 189 193 194 196 201 207 209 208 206 206 211 204 198 200 192
333 332 333 336 333 323 312 307 296 231 178 202 212 198 175 159 146 146 170 235 167 156 201 188 188 195 192 192 194 192 190 186 189 190 188 189 191 192 195 197 197 195 196 197 194 194 198 203 208 206 207 211 211 210 210 207 207 210 208 201 200 210 220 225 228 234 243 244 227 197 194 204 193 186 190 192 197 201 203 205 206 208 209 212 207 199 199 199
331 330 333 337 334 326 323 324 310 213 200 200 193 175 155 148 145 143 196 204 164 118 199 183 182 185 187 188 184 183 187 186 186 189 188 188 190 192 194 195 197 197 197 199 200 201 199 202 208 211 214 214 211 210 210 209 209 208 207 202 203 213 223 231 236 237 244 245 228 218 211 213 216 198 196 197 202 203 202 203 203 206 213 212 206 202 200 196
328 330 336 339 331 329 336 347 3 279 221 168 166 162 154 153 153 169 209 173 157 133 165 183 180 181 186 185 180 178 178 176 183 190 187 184 187 190 189 189 192 195 196 195 194 198 198 198 204 209 210 206 204 206 206 206 205 207 207 198 193 197 200 216 221 216 232 230 203 213 212 214 222 209 200 200 202 203 205 208 203 200 207 208 206 206 201 196
325 332 337 341 337 334 339 348 1 3 173 167 167 161 158 162 184 212 202 134 139 138 158 181 178 179 182 180 180 177 172 170 181 190 188 183 185 187 187 188 185 182 185 187 183 182 190 198 202 207 206 199 195 194 194 196 197 201 203 191 182 175 178 198 200 199 229 188 147 184 192 206 227 218 197 183 187 197 205 210 206 201 200 200 203 206 203 202
326 335 337 344 348 342 341 347 355 27 160 175 177 170 166 170 233 238 233 10 17 75 144 177 175 171 169 174 180 176 169 172 179 186 190 186 185 187 188 192 190 185 180 178 174 168 174 192 200 202 202 200 199 192 187 185 187 192 194 188 183 172 176 199 197 197 226 166 158 180 184 199 226 217 207 194 193 200 204 205 205 207 207 201 202 206 205 207
338 342 345 356 360 353 348 347 356 54 128 174 186 186 190 219 283 268 269 321 354 29 119 166 171 169 167 175 179 174 168 174 178 181 187 186 186 186 187 190 193 193 184 174 174 173 166 178 195 195 196 197 199 202 199 191 186 192 196 194 194 188 182 197 196 198 164 150 169 177 184 199 196 202 205 199 200 202 203 203 201 206 211 210 208 210 211 214
355 354 360 15 14 20 31 11 14 27 33 193 203 199 205 253 291 310 320 327 347 7 93 162 172 168 167 174 178 174 169 171 176 179 184 187 188 187 187 186 189 193 187 175 176 181 177 173 188 190 194 198 196 199 208 199 190 194 198 200 202 197 186 172 186 188 159 132 172 184 186 182 174 175 184 190 199 201 197 198 199 203 210 213 213 212 214 218
15 9 16 40 36 37 40 20 19 20 346 272 255 232 234 267 281 300 317 315 330 350 79 156 171 169 167 174 177 175 171 171 175 177 182 189 191 190 189 186 186 191 190 180 172 177 181 174 182 184 183 195 197 195 198 198 195 196 196 202 205 200 198 189 161 171 175 174 190 189 176 160 168 177 179 184 197 201 196 194 198 205 210 213 216 216 217 218
30 31 41 59 55 50 50 28 22 21 357 321 289 276 266 275 286 298 304 301 310 330 70 146 169 173 173 175 175 174 170 170 175 176 179 186 193 194 191 188 187 190 194 189 179 177 178 165 178 186 175 177 192 196 197 201 204 200 198 202 202 203 216 222 190 151 183 210 194 182 175 169 174 185 188 190 194 199 198 195 198 205 210 213 216 218 220 219
34 45 54 69 75 68 70 51 45 44 7 323 290 288 276 274 296 310 311 305 303 316 48 141 169 174 174 175 173 172 166 168 174 176 178 180 190 197 193 190 188 188 191 193 188 184 179 163 170 188 184 173 177 189 196 203 210 210 207 204 198 200 211 205 196 184 189 206 179 164 180 189 189 188 190 194 194 196 197 197 200 204 208 212 213 216 219 220
25 41 45 57 71 49 51 86 82 73 6 314 293 291 279 279 299 310 313 311 305 316 42 136 158 167 171 174 172 169 164 171 174 174 178 178 184 197 196 194 191 188 186 185 182 182 181 175 167 181 186 180 176 186 194 198 204 210 213 206 200 203 205 194 197 203 186 200 190 151 172 207 204 200 201 203 201 203 203 201 203 205 207 211 212 214 217 219
27 42 62 69 69 52 47 54 51 40 335 301 288 286 283 289 303 310 309 308 312 337 92 128 143 152 159 170 171 166 162 172 175 175 181 179 172 187 195 198 196 191 191 190 184 177 182 186 181 178 184 188 189 192 195 196 197 197 199 199 200 203 197 195 207 211 195 179 183 181 204 210 205 207 210 209 207 212 214 210 208 206 208 212 214 215 217 218
31 46 67 71 66 55 49 46 47 31 346 315 294 289 289 295 305 312 307 309 337 91 122 128 137 147 152 166 170 165 158 167 173 175 182 180 171 174 193 199 199 194 194 195 194 190 188 190 189 185 187 194 199 199 198 199 200 198 197 198 201 201 190 186 210 212 206 190 136 191 256 160 180 195 197 197 202 207 209 212 211 207 207 210 213 215 216 218
36 44 50 49 44 43 42 45 56 15 345 330 308 310 308 310 314 313 315 337 86 120 128 120 133 144 146 163 168 162 154 160 168 173 181 183 176 170 194 196 199 198 195 195 197 196 193 192 192 193 193 195 200 203 202 203 206 208 207 205 205 207 203 200 204 198 200 214 198 201 282 176 170 186 188 188 194 199 201 206 212 210 207 208 212 214 214 217
35 40 34 26 22 23 20 15 3 340 329 311 316 324 310 312 322 323 355 93 117 124 119 111 127 138 137 159 168 162 154 155 160 166 172 178 174 149 189 187 190 196 194 193 192 186 187 193 184 179 189 192 198 205 206 205 209 213 214 211 208 210 211 213 219 209 205 211 205 190 253 231 185 186 190 189 192 197 200 203 209 213 210 208 210 212 215 219
20 19 14 8 1 358 354 347 338 331 324 314 319 328 324 333 360 108 115 116 119 114 111 111 122 133 135 154 166 164 157 154 157 159 155 165 165 134 172 178 181 188 189 188 183 175 178 191 177 154 165 182 191 203 205 204 207 211 214 214 211 212 213 216 221 219 218 216 208 201 216 216 203 194 194 195 195 197 201 203 205 211 213 211 211 213 217 221
358 354 354 352 346 343 343 342 340 338 341 339 338 348 5 26 92 130 119 114 118 113 113 114 118 133 140 152 165 168 162 155 158 155 147 162 167 139 155 173 176 181 183 182 180 174 172 186 183 169 160 177 187 193 195 198 201 206 212 214 213 212 212 214 212 208 216 217 209 208 209 204 205 196 191 198 201 202 205 206 205 207 210 213 214 214 214 217
350 348 349 350 348 351 350 349 353 353 350 350 353 6 24 45 96 122 118 116 120 118 114 114 118 133 146 154 165 170 165 157 162 158 143 154 168 157 154 170 175 177 178 180 182 182 179 183 186 186 184 188 197 202 198 198 199 202 208 212 214 215 215 216 214 210 209 207 208 214 216 213 211 205 198 205 206 209 213 212 208 206 206 209 212 214 216 219
347 345 349 351 351 357 356 355 359 358 354 354 4 25 41 62 97 118 125 123 120 117 111 113 123 135 149 158 165 170 167 157 164 169 157 144 152 154 156 169 176 178 180 183 188 191 192 187 185 189 190 185 189 199 205 206 204 205 207 209 211 213 215 218 221 220 216 209 210 214 214 215 218 218 225 229 219 218 221 218 216 212 209 209 211 213 217 218
346 346 351 349 345 350 353 353 355 359 3 7 19 43 62 87 106 113 119 116 113 115 108 110 129 142 154 160 165 172 173 165 166 177 178 166 149 148 153 165 176 180 182 187 193 198 204 202 190 187 191 185 176 185 203 208 209 209 209 210 210 210 214 218 223 226 226 227 229 223 218 222 227 229 237 243 236 230 224 219 217 214 211 213 215 213 213 215
356 355 359 353 348 355 4 9 12 14 19 21 32 54 74 98 109 108 112 112 110 114 111 114 134 149 157 161 165 171 177 179 175 175 183 185 175 160 157 164 175 182 185 188 194 200 208 212 208 202 205 207 205 211 211 206 208 210 210 211 212 213 216 220 224 227 230 233 236 238 238 237 238 240 240 235 229 225 222 218 217 214 211 212 216 215 214 217
12 9 14 19 21 22 23 28 33 32 30 34 51 71 84 101 110 111 118 121 118 118 114 115 128 141 154 162 167 172 178 185 182 175 179 185 184 172 166 170 175 179 186 192 196 201 205 211 215 215 225 234 232 250 261 210 202 206 209 210 212 215 219 222 225 226 228 232 235 237 241 242 239 238 234 224 218 218 220 219 218 217 215 213 213 213 212 214
24 21 23 31 38 41 42 44 45 39 34 39 56 75 87 100 113 121 126 129 132 132 114 110 120 129 145 162 171 172 177 185 185 178 178 181 179 168 166 179 180 177 183 190 196 202 203 203 208 210 221 235 235 248 249 203 195 205 209 209 210 214 219 222 225 227 229 231 232 231 235 240 237 231 224 218 215 215 218 220 220 221 220 218 216 211 209 211
27 28 31 37 42 46 48 48 46 42 34 29 38 57 74 91 118 133 136 131 133 140 117 114 120 122 133 154 169 171 175 183 184 179 176 176 171 158 152 174 186 184 185 187 191 200 201 199 196 198 207 217 221 230 215 181 184 206 207 209 211 215 220 223 226 228 229 230 231 229 228 228 225 220 218 219 219 218 218 219 221 223 223 220 216 212 211 213
Height
3061 3060 3060 3060 3060 3060 3060 3060 3061 3061 3061 3062 3062 3063 3063 3063 3064 3064 3065 3065 3066 3067 3068 3069 3070 3072 3073 3075 3076 3079 3081 3082 3083 3084 3089 3096 3097 3096 3098 3100 3102 3104 3106 3108 3110 3112 3114 3115 3117 3118 3120 3121 3122 3123 3124 3125 3126 3128 3129 3129 3129 3129 3132 3134 3136 3138 3140 3140 3140 3139 3138 3138 3139 3140 3142 3143 3145 3146 3148 3150 3151 3151 3152 3153 3155 3157 3158 3159
3057 3057 3057 3057 3056 3056 3056 3056 3057 3057 3057 3058 3059 3059 3059 3060 3060 3061 3061 3062 3063 3064 3064 3066 3067 3069 3070 3072 3073 3075 3077 3078 3080 3082 3088 3092 3091 3092 3095 3097 3099 3102 3104 3105 3108 3110 3111 3113 3114 3116 3117 3119 3120 3121 3122 3123 3125 3126 3127 3127 3127 3128 3131 3133 3135 3137 3138 3139 3138 3138 3137 3137 3137 3138 3140 3142 3144 3145 3147 3148 3149 3150 3150 3152 3154 3156 3157 3158
3054 3053 3053 3053 3053 3052 3052 3052 3053 3053 3053 3054 3055 3055 3056 3056 3057 3058 3058 3059 3059 3060 3061 3063 3064 3066 3067 3068 3070 3072 3073 3075 3076 3080 3084 3086 3087 3090 3092 3094 3096 3099 3101 3103 3105 3107 3108 3110 3112 3114 3115 3116 3118 3119 3120 3122 3123 3125 3125 3125 3126 3128 3131 3133 3134 3136 3137 3137 3137 3137 3136 3136 3136 3137 3138 3140 3142 3144 3145 3146 3148 3148 3149 3151 3153 3155 3156 3157
3050 3050 3050 3049 3049 3049 3048 3048 3048 3049 3049 3050 3051 3051 3052 3052 3053 3054 3055 3055 3056 3057 3058 3060 3061 3063 3064 3065 3067 3068 3070 3071 3072 3077 3080 3081 3085 3087 3089 3091 3094 3096 3099 3101 3103 3104 3106 3108 3110 3111 3113 3114 3116 3117 3118 3120 3122 3123 3124 3124 3125 3127 3130 3132 3133 3135 3135 3136 3136 3136 3135 3135 3135 3136 3137 3139 3141 3142 3144 3146 3148 3148 3149 3150 3152 3154 3155 3156
3046 3046 3046 3046 3046 3046 3045 3045 3045 3045 3045 3046 3047 3047 3048 3048 3049 3050 3051 3052 3053 3054 3055 3057 3058 3059 3060 3062 3064 3065 3067 3068 3069 3073 3076 3078 3081 3083 3086 3089 3091 3094 3096 3098 3100 3102 3104 3105 3107 3109 3111 3112 3114 3115 3116 3119 3120 3121 3122 3123 3124 3127 3129 3130 3132 3133 3134 3135 3135 3134 3134 3134 3134 3135 3136 3138 3140 3142 3144 3146 3147 3148 3149 3151 3152 3153 3154 3156
3044 3043 3043 3042 3042 3042 3042 3042 3042 3042 3042 3042 3043 3043 3044 3044 3045 3046 3047 3048 3049 3051 3052 3053 3055 3056 3057 3059 3060 3062 3064 3065 3067 3070 3072 3074 3078 3080 3083 3086 3088 3091 3093 3095 3097 3099 3101 3103 3105 3107 3109 3110 3112 3113 3115 3117 3118 3120 3121 3122 3123 3126 3128 3129 3130 3131 3132 3133 3134 3133 3133 3133 3133 3134 3135 3137 3139 3141 3143 3145 3146 3147 3149 3151 3152 3153 3154 3155
3041 3041 3040 3039 3039 3038 3038 3038 3038 3038 3038 3038 3039 3039 3040 3040 3041 3042 3043 3044 3046 3047 3049 3050 3051 3052 3054 3056 3057 3058 3059 3062 3066 3068 3070 3071 3074 3077 3080 3083 3085 3088 3090 3092 3094 3097 3099 3101 3103 3105 3107 3109 3110 3112 3114 3115 3117 3119 3120 3120 3122 3124 3126 3128 3129 3130 3131 3132 3133 3132 3133 3133 3133 3133 3134 3136 3138 3140 3142 3144 3145 3146 3148 3150 3152 3152 3153 3154
3039 3038 3038 3037 3036 3036 3035 3035 3035 3035 3035 3035 3036 3036 3036 3036 3037 3038 3039 3040 3042 3044 3045 3047 3048 3049 3051 3052 3053 3053 3055 3062 3065 3066 3067 3068 3071 3074 3077 3079 3082 3085 3087 3090 3093 3096 3097 3099 3102 3104 3106 3107 3109 3111 3112 3114 3116 3117 3118 3119 3120 3123 3125 3126 3127 3128 3130 3131 3131 3132 3132 3132 3133 3133 3134 3136 3138 3139 3141 3142 3144 3146 3147 3149 3150 3151 3152 3154
3036 3035 3035 3034 3033 3033 3032 3032 3032 3032 3031 3031 3032 3033 3033 3033 3033 3034 3035 3036 3038 3040 3042 3043 3044 3046 3047 3048 3049 3049 3054 3062 3062 3063 3065 3065 3068 3071 3073 3076 3079 3082 3085 3088 3091 3093 3095 3098 3101 3103 3104 3106 3108 3110 3111 3113 3114 3115 3117 3117 3120 3122 3123 3125 3126 3127 3129 3130 3130 3131 3131 3132 3132 3132 3133 3135 3137 3138 3140 3141 3143 3145 3146 3147 3149 3150 3152 3153
3033 3032 3032 3031 3030 3029 3029 3028 3028 3028 3028 3028 3028 3029 3030 3030 3030 3030 3030 3032 3033 3036 3038 3039 3041 3042 3043 3045 3045 3047 3054 3059 3058 3059 3062 3063 3065 3068 3070 3073 3076 3079 3082 3085 3088 3090 3094 3097 3100 3102 3103 3105 3107 3108 3110 3111 3112 3114 3115 3116 3119 3121 3122 3123 3125 3126 3128 3129 3129 3130 3130 3131 3131 3131 3133 3134 3136 3137 3139 3140 3142 3144 3145 3146 3148 3150 3151 3153
3030 3029 3029 3028 3027 3026 3026 3025 3025 3024 3024 3024 3024 3025 3026 3027 3027 3027 3027 3028 3029 3032 3034 3035 3037 3038 3040 3041 3041 3046 3053 3054 3054 3057 3058 3061 3063 3065 3067 3070 3073 3076 3080 3083 3086 3090 3093 3096 3098 3099 3101 3103 3105 3107 3108 3109 3111 3113 3114 3115 3118 3119 3121 3122 3124 3125 3127 3128 3129 3129 3130 3130 3130 3131 3132 3134 3135 3136 3137 3139 3140 3142 3143 3144 3146 3149 3150 3152
3027 3026 3025 3024 3024 3023 3023 3022 3022 3021 3020 3020 3020 3021 3022 3023 3024 3024 3024 3024 3026 3028 3030 3031 3032 3034 3036 3035 3039 3047 3050 3049 3051 3053 3055 3059 3061 3063 3065 3067 3071 3074 3077 3081 3085 3088 3091 3093 3095 3097 3099 3101 3103 3105 3106 3108 3110 3112 3113 3114 3116 3118 3119 3121 3122 3124 3125 3127 3127 3128 3128 3129 3129 3130 3132 3133 3134 3135 3136 3137 3138 3140 3141 3143 3146 3147 3148 3148
3023 3022 3021 3021 3020 3019 3019 3018 3018 3017 3017 3017 3017 3017 3018 3020 3021 3022 3022 3021 3022 3024 3026 3027 3028 3031 3030 3030 3039 3045 3044 3045 3048 3051 3054 3056 3059 3061 3063 3065 3068 3072 3076 3080 3084 3087 3089 3090 3092 3094 3097 3099 3102 3103 3104 3106 3109 3110 3112 3113 3115 3117 3118 3119 3121 3122 3124 3125 3126 3127 3127 3128 3128 3130 3131 3132 3132 3132 3132 3134 3136 3138 3141 3143 3145 3146 3147 3147
3019 3018 3017 3017 3016 3016 3015 3014 3014 3014 3013 3013 3013 3013 3014 3016 3017 3019 3020 3019 3019 3020 3022 3023 3024 3027 3025 3028 3039 3040 3039 3043 3047 3049 3051 3053 3056 3058 3060 3063 3066 3070 3074 3077 3081 3084 3086 3088 3090 3092 3095 3097 3100 3101 3103 3105 3107 3109 3111 3113 3114 3115 3116 3117 3119 3121 3123 3124 3124 3125 3126 3127 3128 3129 3130 3130 3130 3129 3129 3132 3135 3138 3140 3142 3145 3147 3150 3153
3015 3014 3013 3013 3012 3012 3011 3010 3010 3010 3009 3009 3009 3009 3010 3012 3014 3015 3017 3017 3016 3017 3019 3020 3021 3023 3021 3027 3036 3036 3037 3042 3044 3046 3047 3049 3053 3055 3058 3061 3064 3068 3071 3074 3078 3081 3083 3086 3088 3090 3093 3096 3098 3100 3102 3103 3105 3107 3109 3111 3112 3113 3115 3117 3118 3120 3122 3123 3123 3124 3125 3126 3127 3128 3127 3127 3127 3125 3127 3131 3135 3138 3141 3143 3147 3149 3152 3155
3013 3011 3010 3009 3009 3008 3007 3006 3006 3006 3005 3005 3005 3006 3006 3008 3010 3012 3013 3014 3014 3013 3016 3017 3017 3018 3018 3025 3032 3032 3035 3038 3040 3042 3044 3047 3051 3053 3056 3059 3062 3066 3068 3072 3075 3078 3080 3083 3086 3089 3091 3094 3096 3098 3100 3102 3104 3105 3107 3109 3110 3112 3114 3115 3117 3119 3120 3121 3122 3123 3124 3126 3126 3126 3127 3128 3126 3125 3128 3132 3133 3137 3141 3144 3146 3149 3152 3155
3010 3009 3008 3007 3005 3004 3003 3002 3002 3002 3001 3001 3002 3002 3003 3004 3006 3008 3011 3012 3011 3010 3013 3014 3014 3014 3016 3023 3027 3028 3032 3034 3037 3039 3042 3046 3048 3051 3054 3057 3060 3063 3066 3069 3072 3075 3077 3080 3083 3086 3089 3091 3094 3096 3098 3099 3100 3102 3105 3107 3109 3111 3112 3114 3115 3117 3118 3120 3121 3122 3124 3125 3126 3127 3128 3129 3129 3130 3135 3138 3138 3140 3142 3145 3148 3149 3151 3154
3006 3005 3004 3003 3002 3001 2999 2999 2998 2998 2997 2997 2998 2998 2999 3000 3002 3005 3007 3008 3008 3007 3009 3009 3010 3012 3014 3020 3023 3025 3029 3031 3034 3037 3040 3043 3046 3050 3053 3055 3058 3060 3063 3066 3069 3072 3074 3078 3082 3084 3086 3088 3090 3092 3094 3094 3096 3099 3102 3105 3108 3109 3110 3112 3114 3115 3117 3118 3120 3122 3123 3125 3126 3127 3128 3129 3131 3134 3138 3141 3144 3146 3146 3145 3148 3150 3151 3153
3003 3002 3001 2999 2998 2997 2996 2995 2994 2994 2993 2993 2993 2994 2995 2997 2999 3000 3002 3004 3002 3002 3005 3005 3007 3009 3013 3017 3020 3023 3026 3028 3031 3035 3038 3041 3044 3047 3050 3053 3056 3058 3060 3063 3066 3069 3071 3075 3078 3079 3080 3083 3086 3089 3092 3094 3096 3099 3101 3104 3106 3108 3109 3111 3113 3113 3115 3117 3119 3121 3122 3123 3126 3127 3127 3129 3131 3134 3137 3140 3144 3147 3148 3147 3147 3150 3151 3152
2999 2998 2996 2995 2994 2993 2992 2991 2990 2990 2990 2989 2990 2990 2991 2992 2994 2995 2997 2998 2997 2999 3002 3003 3004 3007 3011 3015 3018 3020 3022 3024 3027 3031 3035 3038 3041 3045 3047 3050 3053 3056 3058 3060 3063 3066 3070 3072 3072 3072 3076 3081 3085 3089 3092 3095 3098 3100 3102 3104 3106 3107 3109 3110 3111 3112 3114 3116 3118 3120 3121 3123 3125 3126 3127 3129 3131 3134 3136 3139 3142 3144 3147 3149 3149 3149 3150 3150
2996 2994 2993 2992 2990 2989 2988 2987 2987 2986 2986 2986 2986 2986 2986 2988 2990 2990 2992 2994 2995 2998 3000 3001 3002 3004 3009 3013 3015 3017 3018 3020 3024 3028 3032 3035 3039 3042 3045 3047 3050 3052 3055 3059 3063 3066 3069 3069 3068 3072 3077 3082 3086 3089 3093 3096 3098 3100 3102 3104 3105 3107 3108 3109 3110 3110 3112 3115 3117 3118 3120 3122 3124 3126 3127 3128 3130 3133 3136 3138 3140 3142 3145 3148 3149 3149 3148 3148
2993 2991 2990 2989 2987 2986 2984 2983 2983 2982 2982 2982 2982 2982 2983 2985 2987 2988 2991 2991 2992 2995 2997 2999 3000 3001 3007 3011 3012 3014 3015 3017 3022 3025 3029 3033 3036 3039 3041 3044 3047 3050 3053 3057 3060 3063 3065 3065 3068 3073 3078 3083 3086 3089 3092 3095 3097 3099 3101 3103 3104 3106 3107 3108 3109 3109 3111 3113 3115 3117 3119 3121 3123 3124 3126 3127 3130 3133 3135 3137 3139 3141 3143 3145 3147 3148 3148 3149
2990 2989 2988 2986 2984 2982 2981 2980 2979 2979 2979 2979 2979 2980 2980 2983 2986 2988 2990 2990 2991 2993 2994 2996 2997 2999 3005 3009 3009 3010 3012 3015 3019 3021 3026 3030 3033 3037 3039 3042 3045 3048 3051 3053 3056 3059 3060 3062 3068 3073 3077 3081 3085 3088 3091 3094 3096 3098 3099 3101 3102 3104 3106 3107 3108 3109 3110 3112 3114 3115 3117 3119 3121 3123 3124 3126 3129 3132 3134 3135 3137 3140 3142 3143 3146 3148 3150 3151
2988 2987 2985 2983 2981 2979 2978 2976 2976 2975 2975 2975 2976 2977 2978 2982 2984 2986 2988 2988 2989 2990 2991 2994 2995 2996 3002 3006 3006 3007 3010 3013 3016 3019 3023 3026 3030 3035 3038 3041 3044 3047 3049 3052 3055 3058 3059 3063 3068 3072 3076 3080 3083 3086 3089 3091 3094 3096 3098 3099 3101 3103 3105 3106 3107 3108 3110 3111 3112 3114 3116 3118 3120 3121 3123 3126 3129 3131 3132 3134 3135 3138 3140 3142 3146 3150 3151 3151
2987 2985 2983 2981 2979 2977 2975 2974 2973 2973 2973 2973 2973 2975 2977 2980 2983 2985 2986 2986 2986 2987 2989 2991 2991 2993 2999 3001 3000 3004 3007 3009 3012 3016 3019 3023 3028 3032 3036 3040 3043 3045 3048 3051 3056 3059 3061 3064 3069 3071 3074 3078 3081 3083 3086 3089 3092 3095 3096 3098 3101 3103 3104 3105 3106 3108 3110 3111 3112 3113 3115 3117 3118 3120 3122 3125 3128 3130 3131 3132 3134 3137 3140 3142 3146 3149 3149 3149
2985 2983 2981 2979 2977 2975 2973 2972 2972 2971 2971 2971 2973 2975 2976 2979 2982 2983 2984 2985 2983 2983 2986 2987 2989 2991 2993 2994 2997 3003 3005 3006 3010 3014 3017 3022 3027 3030 3034 3038 3041 3044 3047 3051 3056 3058 3060 3064 3067 3070 3073 3076 3079 3082 3084 3088 3091 3093 3094 3098 3101 3102 3103 3104 3106 3107 3109 3110 3110 3112 3113 3115 3117 3119 3121 3124 3126 3128 3129 3130 3133 3137 3139 3141 3144 3147 3147 3149
2983 2982 2980 2978 2976 2974 2972 2972 2971 2970 2970 2971 2972 2975 2976 2978 2980 2981 2983 2985 2982 2980 2982 2984 2986 2988 2988 2992 2997 3001 3003 3006 3010 3012 3015 3020 3024 3029 3033 3035 3038 3042 3046 3050 3054 3056 3057 3062 3065 3068 3071 3074 3076 3079 3082 3086 3090 3091 3094 3098 3100 3101 3102 3104 3105 3106 3108 3108 3109 3111 3112 3114 3116 3118 3120 3123 3125 3126 3127 3129 3133 3136 3138 3140 3143 3145 3147 3150
2982 2980 2979 2977 2975 2974 2972 2971 2970 2969 2970 2971 2973 2974 2975 2977 2979 2980 2982 2983 2979 2977 2978 2980 2983 2984 2986 2990 2994 2998 3003 3005 3007 3010 3015 3019 3023 3027 3031 3033 3037 3041 3045 3049 3052 3053 3056 3060 3063 3066 3069 3072 3074 3077 3081 3086 3089 3091 3094 3098 3100 3101 3102 3103 3105 3106 3106 3108 3108 3109 3111 3112 3114 3116 3118 3121 3122 3124 3125 3128 3131 3134 3136 3137 3140 3144 3146 3149
2981 2979 2978 2976 2975 2974 2972 2971 2970 2970 2970 2972 2973 2974 2975 2977 2978 2979 2982 2981 2977 2975 2977 2977 2979 2981 2983 2986 2991 2997 3002 3004 3005 3009 3013 3017 3021 3024 3028 3032 3037 3042 3045 3049 3051 3054 3057 3060 3063 3066 3068 3069 3073 3078 3082 3085 3088 3091 3095 3098 3100 3101 3102 3103 3104 3105 3106 3106 3106 3107 3109 3110 3111 3113 3116 3118 3120 3121 3123 3126 3129 3131 3133 3135 3138 3141 3143 3145
2980 2979 2977 2976 2975 2974 2973 2972 2971 2971 2971 2972 2973 2975 2976 2977 2978 2980 2981 2979 2976 2975 2976 2976 2978 2979 2981 2983 2988 2995 3000 3002 3004 3007 3011 3015 3019 3023 3028 3033 3039 3043 3046 3049 3053 3055 3057 3061 3064 3065 3067 3070 3074 3078 3082 3085 3088 3091 3094 3097 3099 3100 3101 3102 3103 3104 3105 3103 3102 3105 3108 3108 3109 3110 3112 3114 3117 3119 3120 3122 3125 3128 3130 3133 3136 3138 3139 3141
2980 2978 2977 2976 2975 2974 2973 2973 2972 2972 2972 2973 2974 2975 2977 2977 2978 2979 2978 2975 2974 2975 2975 2976 2977 2978 2980 2983 2987 2992 2996 3000 3002 3004 3008 3013 3017 3021 3026 3031 3036 3041 3045 3048 3052 3055 3057 3060 3061 3062 3066 3070 3074 3077 3080 3084 3086 3089 3092 3094 3097 3099 3100 3102 3102 3103 3102 3099 3100 3103 3106 3108 3107 3107 3109 3111 3114 3116 3117 3119 3122 3125 3127 3130 3133 3135 3136 3138
2979 2978 2977 2976 2975 2975 2974 2973 2973 2973 2973 2974 2975 2976 2977 2977 2977 2976 2974 2973 2974 2975 2975 2975 2977 2978 2980 2984 2987 2991 2995 2998 3000 3003 3006 3010 3013 3018 3022 3024 3028 3034 3039 3043 3048 3052 3056 3057 3058 3061 3064 3068 3071 3074 3078 3081 3084 3087 3089 3091 3094 3096 3099 3099 3099 3099 3098 3097 3099 3101 3104 3106 3104 3104 3107 3109 3111 3113 3114 3117 3121 3124 3125 3127 3129 3130 3132 3134
2978 2977 2977 2976 2976 2975 2974 2974 2974 2974 2974 2975 2975 2976 2977 2977 2976 2974 2972 2973 2973 2973 2974 2974 2976 2979 2981 2983 2986 2990 2995 2997 2999 3002 3006 3009 3013 3017 3021 3024 3026 3028 3032 3039 3046 3050 3054 3056 3057 3059 3062 3065 3068 3070 3072 3075 3079 3083 3085 3087 3089 3091 3094 3096 3095 3096 3097 3097 3099 3101 3102 3103 3101 3102 3104 3107 3109 3111 3112 3115 3120 3123 3124 3124 3125 3127 3130 3132
2978 2977 2977 2976 2976 2976 2975 2974 2974 2975 2975 2976 2976 2976 2976 2976 2975 2973 2973 2973 2972 2972 2972 2974 2976 2979 2980 2982 2985 2989 2993 2996 2998 3001 3006 3009 3012 3016 3019 3023 3027 3029 3032 3039 3045 3047 3050 3053 3054 3056 3059 3061 3065 3068 3069 3072 3076 3080 3082 3084 3085 3085 3088 3091 3091 3093 3094 3096 3098 3100 3101 3099 3098 3100 3101 3104 3107 3109 3111 3113 3116 3120 3121 3122 3125 3128 3131 3135
2978 2978 2977 2977 2977 2976 2975 2975 2975 2976 2976 2977 2977 2977 2976 2976 2975 2974 2973 2973 2972 2971 2971 2974 2976 2978 2980 2983 2986 2989 2992 2995 2998 3001 3004 3007 3010 3013 3016 3020 3024 3028 3032 3037 3042 3045 3048 3050 3052 3055 3058 3060 3064 3067 3070 3074 3077 3079 3081 3083 3084 3084 3086 3088 3089 3090 3092 3094 3096 3097 3097 3096 3097 3099 3100 3102 3105 3106 3109 3111 3113 3116 3118 3121 3124 3128 3131 3134
2978 2978 2978 2977 2977 2977 2976 2976 2976 2976 2976 2977 2977 2977 2977 2976 2975 2974 2973 2972 2972 2971 2972 2974 2977 2979 2980 2982 2985 2989 2992 2994 2997 3000 3004 3007 3010 3013 3016 3020 3023 3027 3030 3034 3038 3043 3047 3050 3052 3055 3058 3060 3063 3066 3069 3072 3074 3076 3079 3080 3082 3085 3087 3087 3088 3090 3092 3092 3093 3094 3095 3096 3097 3098 3099 3100 3102 3104 3107 3109 3111 3114 3116 3119 3123 3126 3129 3131
2979 2979 2978 2978 2977 2977 2977 2977 2977 2977 2977 2977 2977 2977 2977 2976 2975 2974 2973 2973 2973 2973 2973 2975 2977 2978 2980 2981 2984 2988 2991 2993 2996 3000 3003 3007 3011 3013 3016 3020 3023 3027 3031 3034 3038 3041 3045 3050 3052 3054 3057 3059 3063 3066 3069 3071 3072 3073 3075 3077 3082 3086 3086 3086 3088 3090 3090 3090 3090 3092 3093 3094 3095 3096 3097 3098 3100 3102 3105 3107 3110 3112 3115 3118 3121 3124 3127 3129
2980 2979 2979 2978 2978 2977 2977 2977 2977 2977 2977 2977 2977 2977 2976 2976 2975 2975 2974 2973 2973 2973 2974 2975 2976 2978 2979 2981 2983 2987 2990 2992 2995 2999 3002 3006 3009 3011 3015 3019 3023 3027 3032 3035 3039 3041 3045 3049 3052 3054 3057 3059 3061 3065 3068 3069 3070 3072 3074 3076 3080 3082 3082 3083 3085 3086 3087 3087 3088 3091 3092 3092 3092 3092 3094 3097 3099 3101 3103 3105 3107 3110 3112 3115 3118 3121 3123 3126
2981 2980 2980 2979 2978 2978 2977 2977 2977 2977 2977 2977 2977 2976 2975 2975 2975 2975 2973 2973 2972 2972 2973 2974 2976 2978 2980 2981 2984 2987 2990 2992 2994 2998 3001 3005 3008 3010 3014 3018 3022 3027 3031 3035 3038 3041 3044 3047 3050 3053 3056 3058 3060 3061 3062 3064 3067 3071 3074 3075 3076 3077 3077 3080 3081 3081 3082 3084 3085 3089 3091 3090 3089 3090 3093 3096 3098 3099 3101 3103 3105 3107 3110 3113 3116 3118 3120 3123
2983 2982 2981 2980 2979 2978 2978 2977 2977 2977 2977 2977 2976 2976 2975 2974 2974 2974 2973 2972 2972 2971 2972 2974 2976 2978 2980 2982 2985 2988 2990 2992 2995 2998 3001 3004 3007 3010 3013 3017 3021 3025 3030 3034 3038 3040 3043 3045 3048 3051 3054 3055 3055 3055 3057 3060 3062 3066 3069 3071 3073 3075 3076 3078 3079 3079 3080 3081 3083 3086 3086 3085 3085 3088 3091 3094 3096 3098 3099 3101 3103 3105 3108 3110 3113 3116 3118 3121
2984 2983 2982 2981 2980 2980 2979 2978 2978 2978 2977 2977 2976 2975 2974 2973 2973 2973 2972 2972 2972 2972 2973 2975 2976 2978 2980 2982 2985 2988 2991 2993 2996 2999 3001 3004 3007 3009 3011 3015 3020 3024 3028 3033 3036 3039 3042 3044 3047 3048 3050 3051 3052 3054 3057 3059 3061 3063 3065 3067 3069 3072 3074 3076 3077 3078 3079 3080 3082 3083 3082 3081 3083 3085 3088 3091 3094 3096 3097 3099 3101 3103 3105 3108 3110 3113 3117 3120
2985 2984 2983 2983 2982 2981 2980 2979 2979 2978 2977 2977 2976 2975 2974 2973 2972 2971 2971 2971 2972 2973 2974 2976 2977 2979 2981 2983 2986 2989 2992 2994 2997 2999 3001 3004 3006 3008 3009 3013 3018 3023 3027 3031 3035 3039 3042 3044 3046 3047 3048 3050 3053 3055 3058 3060 3062 3064 3064 3066 3068 3070 3072 3073 3072 3075 3078 3080 3081 3082 3081 3081 3082 3083 3085 3088 3091 3093 3095 3097 3099 3101 3103 3105 3108 3111 3115 3118
2987 2986 2984 2983 2983 2982 2981 2980 2979 2978 2977 2976 2975 2974 2973 2972 2971 2971 2971 2971 2972 2974 2975 2976 2978 2980 2982 2984 2987 2990 2993 2995 2998 3000 3002 3004 3007 3008 3008 3011 3016 3021 3026 3030 3034 3038 3041 3043 3044 3046 3048 3052 3054 3056 3058 3060 3061 3062 3062 3064 3066 3067 3069 3071 3071 3074 3077 3077 3079 3081 3081 3080 3081 3082 3084 3086 3088 3090 3093 3095 3097 3098 3100 3104 3107 3110 3113 3115
2987 2986 2985 2984 2983 2982 2981 2980 2979 2977 2976 2975 2974 2973 2973 2972 2971 2971 2971 2972 2973 2975 2976 2977 2979 2980 2982 2984 2987 2991 2993 2995 2998 3001 3002 3004 3007 3008 3009 3011 3015 3019 3024 3028 3032 3036 3038 3040 3042 3044 3047 3051 3053 3054 3054 3055 3056 3058 3059 3062 3064 3067 3069 3071 3072 3074 3074 3073 3076 3079 3078 3078 3080 3081 3082 3084 3086 3088 3090 3092 3094 3096 3098 3101 3105 3108 3111 3113
2988 2987 2985 2984 2983 2982 2981 2979 2978 2976 2975 2974 2973 2972 2972 2972 2972 2972 2973 2973 2974 2976 2977 2978 2980 2981 2983 2985 2988 2991 2994 2995 2998 3001 3002 3005 3007 3009 3010 3013 3016 3019 3023 3028 3032 3035 3036 3038 3040 3040 3042 3045 3046 3046 3046 3049 3052 3055 3058 3060 3063 3065 3067 3069 3071 3072 3071 3071 3074 3076 3076 3078 3080 3081 3082 3083 3085 3086 3088 3090 3092 3095 3097 3100 3103 3106 3108 3111
2988 2987 2985 2984 2983 2982 2980 2979 2977 2975 2973 2972 2972 2971 2971 2972 2972 2973 2974 2975 2976 2977 2978 2979 2981 2982 2984 2986 2989 2992 2995 2997 2999 3001 3003 3005 3007 3009 3011 3014 3017 3021 3024 3028 3032 3034 3035 3037 3039 3040 3040 3041 3042 3043 3045 3048 3051 3053 3055 3058 3061 3063 3066 3068 3069 3068 3068 3070 3072 3073 3075 3078 3080 3081 3082 3083 3084 3085 3086 3088 3090 3092 3095 3099 3102 3104 3107 3110
2988 2987 2985 2984 2983 2982 2980 2979 2977 2975 2974 2974 2973 2972 2972 2972 2973 2974 2975 2976 2977 2978 2979 2980 2981 2983 2984 2987 2990 2993 2995 2998 3000 3002 3004 3006 3008 3010 3012 3015 3018 3022 3025 3028 3031 3033 3035 3037 3038 3040 3041 3042 3043 3045 3046 3048 3049 3051 3054 3056 3059 3061 3063 3065 3064 3065 3068 3070 3070 3071 3074 3077 3079 3081 3082 3082 3083 3084 3085 3086 3088 3090 3093 3096 3099 3102 3105 3107
2988 2987 2986 2984 2983 2982 2981 2979 2978 2977 2976 2976 2975 2974 2973 2973 2974 2975 2976 2977 2978 2978 2979 2981 2981 2982 2984 2986 2989 2992 2995 2998 3000 3002 3004 3006 3008 3010 3013 3016 3019 3022 3025 3028 3031 3033 3035 3036 3038 3039 3041 3042 3043 3044 3045 3047 3048 3050 3052 3054 3057 3059 3060 3061 3062 3064 3067 3067 3068 3071 3074 3076 3078 3080 3081 3082 3082 3083 3084 3085 3087 3089 3091 3094 3097 3099 3102 3104
2989 2987 2986 2985 2984 2983 2982 2980 2979 2978 2977 2977 2976 2976 2975 2975 2976 2976 2977 2978 2979 2979 2980 2981 2982 2983 2984 2986 2988 2991 2994 2996 2998 3001 3003 3006 3008 3011 3013 3015 3018 3021 3024 3027 3030 3032 3034 3036 3038 3039 3040 3041 3042 3043 3044 3045 3047 3049 3051 3053 3055 3056 3058 3059 3061 3063 3065 3065 3068 3071 3072 3074 3076 3077 3079 3080 3081 3081 3082 3084 3085 3087 3090 3092 3094 3096 3099 3102
2989 2988 2987 2986 2985 2984 2983 2982 2981 2980 2979 2978 2978 2977 2977 2977 2977 2978 2978 2979 2980 2981 2981 2982 2982 2983 2985 2986 2987 2989 2992 2995 2998 3001 3003 3006 3008 3011 3013 3014 3016 3019 3022 3026 3029 3031 3033 3035 3037 3039 3040 3041 3042 3043 3043 3044 3045 3047 3048 3050 3053 3054 3056 3057 3059 3060 3062 3064 3066 3069 3070 3072 3074 3075 3076 3078 3078 3079 3081 3082 3084 3086 3088 3090 3091 3093 3097 3100
2991 2990 2988 2986 2985 2985 2984 2983 2982 2981 2981 2980 2980 2979 2979 2979 2979 2980 2980 2981 2981 2982 2983 2983 2983 2984 2985 2986 2988 2989 2992 2995 2998 3001 3003 3006 3009 3011 3013 3015 3016 3019 3021 3025 3028 3030 3032 3034 3036 3038 3040 3040 3041 3043 3043 3043 3044 3045 3046 3048 3050 3052 3053 3054 3056 3057 3059 3062 3064 3066 3068 3070 3072 3073 3074 3075 3077 3078 3079 3081 3082 3084 3085 3087 3089 3091 3095 3098
2992 2991 2989 2988 2987 2986 2985 2984 2983 2982 2982 2981 2981 2981 2981 2981 2981 2981 2981 2983 2983 2984 2984 2984 2984 2985 2986 2987 2988 2990 2993 2995 2998 3001 3004 3007 3009 3011 3013 3015 3017 3018 3021 3024 3027 3029 3031 3034 3035 3037 3039 3040 3041 3042 3043 3043 3044 3044 3044 3046 3047 3049 3051 3052 3054 3056 3058 3060 3062 3064 3066 3069 3070 3071 3072 3073 3075 3076 3078 3079 3081 3082 3083 3085 3087 3090 3094 3096